Location: Il Ritiro
(43.4167°N, 13.1333°E)
Time: 17:04:41
(UTC+00:00)

Meteor 1-21 Rocket - Pass Details

Date: 05 July 2020
Orbit: 833 x 907 km, 81.2° (Epoch: 11 August)

Event Time Altitude Azimuth Distance (km) Brightness Sun altitude
Rises 19:46:42 0° 187° (S) 3,501 7.1 -8.8°
Reaches altitude 10° 19:49:08 10° 187° (S) 2,571 6.4 -9.1°
Maximum altitude 19:55:01 87° 101° (ESE) 914 4.4 -9.9°
Drops below altitude 10° 20:00:59 10° 11° (N) 2,600 7.2 -10.7°
Sets 20:03:28 0° 11° (N) 3,543 8.0 -11.0°
